{"data":{"norad_id":59598,"epoch":"2026-09-18T23:06:38.835072Z","epoch_age_seconds":147245,"freshness":"FRESH","line1":"1 59598U 24079A   26261.96294948  .00000019  00000+0  00000+0 0  9994","line2":"2 59598  55.1803  98.4580 0001421 127.6880  50.3345  1.70474402 14918","mean_motion":1.70474402,"eccentricity":0.0001421,"inclination_deg":55.1803,"raan_deg":98.458,"arg_perigee_deg":127.688,"mean_anomaly_deg":50.3345,"bstar":0,"rev_number":1491,"period_min":844.70159924655,"perigee_km":23217.930324503,"apogee_km":23226.342722239,"semimajor_km":29600.273523371,"source":"CELESTRAK","updated_at":"2026-09-20T09:00:46.498461Z"}}